NOAA 16 DEB

Satellite information

Favourite Embed

Satellite Type and Status

DEBRISIN ORBIT

Key statistics

Satellite NOAA 16 DEB at a glance.

Uptime

8995

Days in orbit

Revolutions

≈ 14.5

Per day

Orbit

SSO

Sun Synchronous Orbit

Inclination

98.8

Latest

Satellite identification and parameters

Extended collection of information and parameters for NOAA 16 DEB.

Object identification

Identified? True

Debris? True

Object name: NOAA 16 DEB

International designator: 2000-055TP

Object number (NORAD): 42419

Object ID (CCSDS): 42419

Country: UNITED STATES OF AMERICA (US)

Current information (Y/N): Y

RCS size: SMALL

Orbital parameters

Period: 99.542 minutes

Inclination: 98.8224 deg

SMA: 7114.841 km

Apoapsis: 751.658 km

Periapsis: 721.753 km

RAAN: 231.4 deg

Eccentricy: 0.0021016

Argument of periapsis: 122.753 deg

Mean anomaly: 237.5689 deg

Mean motion: 14.46621695 rev/day

Mean motion (dot): 0.00020338 rev/day2

B* drag term: 0.0056174 1/REarth

Two-line elements (TLE)

Creation date: May 6, 2025, 7:06 a.m.

Reference frame: TEME

Reference center: EARTH

Epoch: May 6, 2025, 5:54 a.m. UTC

TLE line 0: 0 NOAA 16 DEB

TLE line 1: 1 42419U 00055TP 25126.24612952 .00020338 00000-0 56174-2 0 9998

TLE line 2: 2 42419 98.8224 231.4000 0021016 122.7530 237.5689 14.46621695473700

Live tracking on map

Real-time ground track for satellite NOAA 16 DEB.

In-orbit conjunctions

A list of the most updated potential collisions computed for object NOAA 16 DEB.

Target Orbit TCA Probability of collision Miss distance Type
FENGYUN 1C DEB SSO 2024-11-10 10:47:12 0.001604807 117.0 (m) DEBRIS
CZ-4 DEB SSO 2024-11-09 06:15:50 0.0002278691 954.0 (m) DEBRIS

Associated space launch

The NOAA K, L and M POES satellites begin the fifth generation of improved environmental monitoring in support of NOAA missions. The instrument payload has significant improvements and additions/deletions. The instrument changes have effected the spacecraft subsystems and data formats.

NOAA 16 DEB was lifted into orbit during the mission ‘Titan II SLV | NOAA 16’, on board a Titan II SLV space rocket.

The launch took place on Sept. 21, 2000, 10:22 a.m. from Space Launch Complex 4W.

For more information about the launch, click the button.

Launch to space Titan II SLV | NOAA 16
Titan II SLV | NOAA 16

Agency: N/A

Status: Launch Successful

Launch date: Sept. 21, 2000, 10:22 a.m. UTC

Rocket: Titan II SLV

Launch pad: Space Launch Complex 4W

Location: Vandenberg SFB, CA, USA

...

Latest news about this satellite

There are no fresh news available about this satellite. Check back as we update our databases every day.


Newsletter sign-up

Weekly statistics, charts and insights to help you stay on top of the space industry.